Year,Month,Day,Hour,Minute,Value (Times are PST for windgust in km/hr)
2012,03,13,00,00,11.30
2012,03,13,00,01,9.60
2012,03,13,00,02,14.50
2012,03,13,00,03,11.30
2012,03,13,00,04,14.50
2012,03,13,00,05,14.50
2012,03,13,00,06,11.30
2012,03,13,00,07,9.60
2012,03,13,00,08,17.70
2012,03,13,00,09,9.60
2012,03,13,00,10,9.60
2012,03,13,00,11,9.60
2012,03,13,00,12,11.30
2012,03,13,00,13,17.70
2012,03,13,00,14,19.30
2012,03,13,00,15,19.30
2012,03,13,00,16,8.10
2012,03,13,00,17,8.10
2012,03,13,00,18,9.60
2012,03,13,00,19,17.70
2012,03,13,00,20,9.60
2012,03,13,00,21,8.10
2012,03,13,00,22,9.60
2012,03,13,00,23,16.10
2012,03,13,00,24,11.30
2012,03,13,00,25,20.90
2012,03,13,00,26,20.90
2012,03,13,00,27,8.10
2012,03,13,00,28,3.20
2012,03,13,00,29,9.60
2012,03,13,00,30,4.80
2012,03,13,00,31,9.60
2012,03,13,00,32,14.50
2012,03,13,00,33,11.30
2012,03,13,00,34,3.20
2012,03,13,00,35,11.30
2012,03,13,00,36,12.90
2012,03,13,00,37,9.60
2012,03,13,00,38,8.10
2012,03,13,00,39,6.40
2012,03,13,00,40,16.10
2012,03,13,00,41,4.80
2012,03,13,00,42,6.40
2012,03,13,00,43,16.10
2012,03,13,00,44,8.10
2012,03,13,00,45,9.60
2012,03,13,00,46,9.60
2012,03,13,00,47,6.40
2012,03,13,00,48,12.90
2012,03,13,00,49,9.60
2012,03,13,00,50,4.80
2012,03,13,00,51,17.70
2012,03,13,00,52,14.50
2012,03,13,00,53,8.10
2012,03,13,00,54,6.40
2012,03,13,00,55,8.10
2012,03,13,00,56,11.30
2012,03,13,00,57,16.10
2012,03,13,00,58,16.10
2012,03,13,00,59,11.30
2012,03,13,01,00,14.50
2012,03,13,01,01,17.70
2012,03,13,01,02,19.30
2012,03,13,01,03,9.60
2012,03,13,01,04,14.50
2012,03,13,01,05,11.30
2012,03,13,01,06,9.60
2012,03,13,01,07,6.40
2012,03,13,01,08,6.40
2012,03,13,01,09,6.40
2012,03,13,01,10,9.60
2012,03,13,01,11,8.10
2012,03,13,01,12,6.40
2012,03,13,01,13,3.20
2012,03,13,01,14,9.60
2012,03,13,01,15,9.60
2012,03,13,01,16,6.40
2012,03,13,01,17,4.80
2012,03,13,01,18,4.80
2012,03,13,01,19,8.10
2012,03,13,01,20,16.10
2012,03,13,01,21,8.10
2012,03,13,01,22,6.40
2012,03,13,01,23,14.50
2012,03,13,01,24,6.40
2012,03,13,01,25,4.80
2012,03,13,01,26,11.30
2012,03,13,01,27,9.60
2012,03,13,01,28,9.60
2012,03,13,01,29,14.50
2012,03,13,01,30,16.10
2012,03,13,01,31,9.60
2012,03,13,01,32,8.10
2012,03,13,01,33,17.70
2012,03,13,01,34,17.70
2012,03,13,01,35,8.10
2012,03,13,01,36,11.30
2012,03,13,01,37,16.10
2012,03,13,01,38,8.10
2012,03,13,01,39,9.60
2012,03,13,01,40,17.70
2012,03,13,01,41,9.60
2012,03,13,01,42,8.10
2012,03,13,01,43,4.80
2012,03,13,01,44,24.20
2012,03,13,01,45,20.90
2012,03,13,01,46,14.50
2012,03,13,01,47,9.60
2012,03,13,01,48,6.40
2012,03,13,01,49,11.30
2012,03,13,01,50,19.30
2012,03,13,01,51,8.10
2012,03,13,01,52,9.60
2012,03,13,01,53,11.30
2012,03,13,01,54,9.60
2012,03,13,01,55,19.30
2012,03,13,01,56,8.10
2012,03,13,01,57,9.60
2012,03,13,01,58,9.60
2012,03,13,01,59,9.60
2012,03,13,02,00,14.50
2012,03,13,02,01,8.10
2012,03,13,02,02,8.10
2012,03,13,02,03,8.10
2012,03,13,02,04,6.40
2012,03,13,02,05,17.70
2012,03,13,02,06,8.10
2012,03,13,02,07,4.80
2012,03,13,02,08,9.60
2012,03,13,02,09,17.70
2012,03,13,02,10,22.50
2012,03,13,02,11,20.90
2012,03,13,02,12,11.30
2012,03,13,02,13,12.90
2012,03,13,02,14,14.50
2012,03,13,02,15,20.90
2012,03,13,02,16,4.80
2012,03,13,02,17,8.10
2012,03,13,02,18,4.80
2012,03,13,02,19,12.90
2012,03,13,02,20,17.70
2012,03,13,02,21,14.50
2012,03,13,02,22,11.30
2012,03,13,02,23,19.30
2012,03,13,02,24,16.10
2012,03,13,02,25,8.10
2012,03,13,02,26,19.30
2012,03,13,02,27,22.50
2012,03,13,02,28,19.30
2012,03,13,02,29,19.30
2012,03,13,02,30,20.90
2012,03,13,02,31,9.60
2012,03,13,02,32,11.30
2012,03,13,02,33,24.20
2012,03,13,02,34,24.20
2012,03,13,02,35,11.30
2012,03,13,02,36,6.40
2012,03,13,02,37,16.10
2012,03,13,02,38,22.50
2012,03,13,02,39,19.30
2012,03,13,02,40,19.30
2012,03,13,02,41,20.90
2012,03,13,02,42,9.60
2012,03,13,02,43,25.70
2012,03,13,02,44,22.50
2012,03,13,02,45,8.10
2012,03,13,02,46,20.90
2012,03,13,02,47,11.30
2012,03,13,02,48,9.60
2012,03,13,02,49,25.70
2012,03,13,02,50,24.20
2012,03,13,02,51,16.10
2012,03,13,02,52,20.90
2012,03,13,02,53,16.10
2012,03,13,02,54,9.60
2012,03,13,02,55,11.30
2012,03,13,02,56,4.80
2012,03,13,02,57,11.30
2012,03,13,02,58,6.40
2012,03,13,02,59,8.10
2012,03,13,03,00,16.10
2012,03,13,03,01,6.40
2012,03,13,03,02,4.80
2012,03,13,03,03,11.30
2012,03,13,03,04,12.90
2012,03,13,03,05,16.10
2012,03,13,03,06,11.30
2012,03,13,03,07,19.30
2012,03,13,03,08,12.90
2012,03,13,03,09,6.40
2012,03,13,03,10,24.20
2012,03,13,03,11,14.50
2012,03,13,03,12,19.30
2012,03,13,03,13,24.20
2012,03,13,03,14,14.50
2012,03,13,03,15,17.70
2012,03,13,03,16,11.30
2012,03,13,03,17,16.10
2012,03,13,03,18,11.30
2012,03,13,03,19,16.10
2012,03,13,03,20,9.60
2012,03,13,03,21,4.80
2012,03,13,03,22,14.50
2012,03,13,03,23,8.10
2012,03,13,03,24,20.90
2012,03,13,03,25,11.30
2012,03,13,03,26,17.70
2012,03,13,03,27,16.10
2012,03,13,03,28,8.10
2012,03,13,03,29,8.10
2012,03,13,03,30,24.20
2012,03,13,03,31,11.30
2012,03,13,03,32,8.10
2012,03,13,03,33,6.40
2012,03,13,03,34,16.10
2012,03,13,03,35,19.30
2012,03,13,03,36,19.30
2012,03,13,03,37,6.40
2012,03,13,03,38,9.60
2012,03,13,03,39,16.10
2012,03,13,03,40,11.30
2012,03,13,03,41,12.90
2012,03,13,03,42,11.30
2012,03,13,03,43,8.10
2012,03,13,03,44,6.40
2012,03,13,03,45,8.10
2012,03,13,03,46,11.30
2012,03,13,03,47,11.30
2012,03,13,03,48,8.10
2012,03,13,03,49,8.10
2012,03,13,03,50,1.60
2012,03,13,03,51,12.90
2012,03,13,03,52,8.10
2012,03,13,03,53,16.10
2012,03,13,03,54,6.40
2012,03,13,03,55,6.40
2012,03,13,03,56,4.80
2012,03,13,03,57,8.10
2012,03,13,03,58,6.40
2012,03,13,03,59,1.60
2012,03,13,04,00,3.20
2012,03,13,04,01,9.60
2012,03,13,04,02,9.60
2012,03,13,04,03,6.40
2012,03,13,04,04,4.80
2012,03,13,04,05,3.20
2012,03,13,04,06,4.80
2012,03,13,04,07,3.20
2012,03,13,04,08,4.80
2012,03,13,04,09,6.40
2012,03,13,04,10,8.10
2012,03,13,04,11,8.10
2012,03,13,04,12,1.60
2012,03,13,04,13,6.40
2012,03,13,04,14,3.20
2012,03,13,04,15,4.80
2012,03,13,04,16,6.40
2012,03,13,04,17,1.60
2012,03,13,04,18,6.40
2012,03,13,04,20,4.80
2012,03,13,04,21,8.10
2012,03,13,04,22,8.10
2012,03,13,04,23,4.80
2012,03,13,04,24,3.20
2012,03,13,04,25,8.10
2012,03,13,04,26,3.20
2012,03,13,04,27,4.80
2012,03,13,04,28,3.20
2012,03,13,04,29,9.60
2012,03,13,04,31,1.60
2012,03,13,04,32,6.40
2012,03,13,04,33,4.80
2012,03,13,04,34,3.20
2012,03,13,04,38,6.40
2012,03,13,04,39,6.40
2012,03,13,04,40,8.10
2012,03,13,04,41,6.40
2012,03,13,04,42,6.40
2012,03,13,04,43,6.40
2012,03,13,04,44,6.40
2012,03,13,04,45,11.30
2012,03,13,04,46,11.30
2012,03,13,04,47,9.60
2012,03,13,04,48,6.40
2012,03,13,04,49,11.30
2012,03,13,04,50,9.60
2012,03,13,04,51,12.90
2012,03,13,04,52,11.30
2012,03,13,04,53,9.60
2012,03,13,04,54,9.60
2012,03,13,04,55,11.30
2012,03,13,04,56,16.10
2012,03,13,04,57,11.30
2012,03,13,04,58,9.60
2012,03,13,04,59,11.30
2012,03,13,05,00,11.30
2012,03,13,05,01,19.30
2012,03,13,05,02,14.50
2012,03,13,05,03,9.60
2012,03,13,05,04,11.30
2012,03,13,05,05,11.30
2012,03,13,05,06,14.50
2012,03,13,05,07,9.60
2012,03,13,05,08,4.80
2012,03,13,05,09,11.30
2012,03,13,05,10,9.60
2012,03,13,05,11,16.10
2012,03,13,05,12,16.10
2012,03,13,05,13,8.10
2012,03,13,05,14,8.10
2012,03,13,05,15,6.40
2012,03,13,05,16,9.60
2012,03,13,05,17,9.60
2012,03,13,05,18,6.40
2012,03,13,05,19,11.30
2012,03,13,05,20,14.50
2012,03,13,05,21,6.40
2012,03,13,05,22,4.80
2012,03,13,05,23,4.80
2012,03,13,05,24,4.80
2012,03,13,05,25,11.30
2012,03,13,05,26,6.40
2012,03,13,05,27,1.60
2012,03,13,05,28,1.60
2012,03,13,05,30,6.40
2012,03,13,05,31,3.20
2012,03,13,05,32,1.60
2012,03,13,05,33,1.60
2012,03,13,05,34,1.60
2012,03,13,05,36,4.80
2012,03,13,05,37,4.80
2012,03,13,05,38,4.80
2012,03,13,05,39,4.80
2012,03,13,05,40,6.40
2012,03,13,05,41,1.60
2012,03,13,05,42,6.40
2012,03,13,05,43,4.80
2012,03,13,05,44,4.80
2012,03,13,05,46,1.60
2012,03,13,05,47,1.60
2012,03,13,05,48,1.60
2012,03,13,05,49,1.60
2012,03,13,05,52,1.60
2012,03,13,05,53,4.80
2012,03,13,05,56,1.60
2012,03,13,05,57,3.20
2012,03,13,05,58,4.80
2012,03,13,05,59,6.40
2012,03,13,06,01,3.20
2012,03,13,06,02,3.20
2012,03,13,06,03,3.20
2012,03,13,06,07,1.60
2012,03,13,06,16,1.60
2012,03,13,06,23,1.60
2012,03,13,06,24,3.20
2012,03,13,06,25,3.20
2012,03,13,06,27,1.60
2012,03,13,06,31,1.60
2012,03,13,06,52,1.60
2012,03,13,06,53,4.80
2012,03,13,06,54,4.80
2012,03,13,06,55,1.60
2012,03,13,06,57,1.60
2012,03,13,06,59,4.80
2012,03,13,07,00,4.80
2012,03,13,07,05,3.20
2012,03,13,07,06,4.80
2012,03,13,07,07,6.40
2012,03,13,07,08,8.10
2012,03,13,07,09,3.20
2012,03,13,07,10,3.20
2012,03,13,07,11,4.80
2012,03,13,07,12,4.80
2012,03,13,07,13,1.60
2012,03,13,07,14,3.20
2012,03,13,07,15,3.20
2012,03,13,07,16,4.80
2012,03,13,07,17,3.20
2012,03,13,07,19,1.60
2012,03,13,07,20,4.80
2012,03,13,07,21,4.80
2012,03,13,07,25,1.60
2012,03,13,07,26,1.60
2012,03,13,07,29,3.20
2012,03,13,07,31,1.60
2012,03,13,07,32,1.60
2012,03,13,07,33,1.60
2012,03,13,07,34,6.40
2012,03,13,07,35,4.80
2012,03,13,07,36,6.40
2012,03,13,07,37,4.80
2012,03,13,07,38,1.60
2012,03,13,07,39,3.20
2012,03,13,07,45,1.60
2012,03,13,07,46,1.60
2012,03,13,07,52,4.80
2012,03,13,07,53,3.20
2012,03,13,07,54,1.60
2012,03,13,07,56,6.40
2012,03,13,07,57,1.60
2012,03,13,07,58,1.60
2012,03,13,07,59,1.60
2012,03,13,08,00,4.80
2012,03,13,08,01,8.10
2012,03,13,08,02,4.80
2012,03,13,08,03,3.20
2012,03,13,08,04,6.40
2012,03,13,08,05,3.20
2012,03,13,08,06,17.70
2012,03,13,08,07,16.10
2012,03,13,08,08,17.70
2012,03,13,08,09,6.40
2012,03,13,08,10,4.80
2012,03,13,08,11,6.40
2012,03,13,08,12,6.40
2012,03,13,08,13,4.80
2012,03,13,08,14,11.30
2012,03,13,08,15,9.60
2012,03,13,08,16,11.30
2012,03,13,08,17,14.50
2012,03,13,08,18,9.60
2012,03,13,08,19,4.80
2012,03,13,08,20,8.10
2012,03,13,08,21,14.50
2012,03,13,08,22,12.90
2012,03,13,08,23,6.40
2012,03,13,08,24,11.30
2012,03,13,08,25,8.10
2012,03,13,08,26,6.40
2012,03,13,08,27,8.10
2012,03,13,08,28,3.20
2012,03,13,08,29,3.20
2012,03,13,08,30,1.60
2012,03,13,08,31,4.80
2012,03,13,08,32,4.80
2012,03,13,08,33,8.10
2012,03,13,08,34,11.30
2012,03,13,08,35,6.40
2012,03,13,08,36,8.10
2012,03,13,08,37,8.10
2012,03,13,08,38,9.60
2012,03,13,08,39,11.30
2012,03,13,08,40,6.40
2012,03,13,08,41,8.10
2012,03,13,08,42,8.10
2012,03,13,08,43,6.40
2012,03,13,08,44,3.20
2012,03,13,08,45,8.10
2012,03,13,08,46,9.60
2012,03,13,08,47,8.10
2012,03,13,08,48,4.80
2012,03,13,08,49,11.30
2012,03,13,08,50,16.10
2012,03,13,08,51,6.40
2012,03,13,08,52,6.40
2012,03,13,08,53,8.10
2012,03,13,08,54,8.10
2012,03,13,08,55,1.60
2012,03,13,08,56,4.80
2012,03,13,08,57,3.20
2012,03,13,08,58,8.10
2012,03,13,08,59,9.60
2012,03,13,09,00,8.10
2012,03,13,09,01,9.60
2012,03,13,09,02,8.10
2012,03,13,09,03,9.60
2012,03,13,09,04,8.10
2012,03,13,09,05,8.10
2012,03,13,09,06,6.40
2012,03,13,09,07,3.20
2012,03,13,09,08,16.10
2012,03,13,09,09,9.60
2012,03,13,09,10,16.10
2012,03,13,09,11,14.50
2012,03,13,09,12,9.60
2012,03,13,09,13,8.10
2012,03,13,09,14,8.10
2012,03,13,09,15,8.10
2012,03,13,09,16,4.80
2012,03,13,09,17,8.10
2012,03,13,09,18,8.10
2012,03,13,09,19,3.20
2012,03,13,09,20,3.20
2012,03,13,09,21,3.20
2012,03,13,09,22,8.10
2012,03,13,09,23,4.80
2012,03,13,09,24,3.20
2012,03,13,09,25,6.40
2012,03,13,09,26,6.40
2012,03,13,09,27,4.80
2012,03,13,09,28,3.20
2012,03,13,09,29,6.40
2012,03,13,09,30,6.40
2012,03,13,09,31,1.60
2012,03,13,09,32,4.80
2012,03,13,09,33,1.60
2012,03,13,09,35,1.60
2012,03,13,09,36,6.40
2012,03,13,09,37,8.10
2012,03,13,09,38,4.80
2012,03,13,09,39,4.80
2012,03,13,09,40,6.40
2012,03,13,09,41,6.40
2012,03,13,09,42,4.80
2012,03,13,09,43,6.40
2012,03,13,09,44,4.80
2012,03,13,09,45,9.60
2012,03,13,09,46,6.40
2012,03,13,09,47,1.60
2012,03,13,09,48,6.40
2012,03,13,09,49,4.80
2012,03,13,09,50,4.80
2012,03,13,09,51,6.40
2012,03,13,09,52,8.10
2012,03,13,09,53,1.60
2012,03,13,09,54,3.20
2012,03,13,09,55,1.60
2012,03,13,09,56,6.40
2012,03,13,09,57,3.20
2012,03,13,09,58,3.20
2012,03,13,09,59,4.80
2012,03,13,10,00,3.20
2012,03,13,10,01,1.60
2012,03,13,10,03,1.60
2012,03,13,10,05,4.80
2012,03,13,10,06,3.20
2012,03,13,10,07,6.40
2012,03,13,10,08,6.40
2012,03,13,10,09,8.10
2012,03,13,10,10,8.10
2012,03,13,10,11,8.10
2012,03,13,10,12,4.80
2012,03,13,10,13,4.80
2012,03,13,10,14,4.80
2012,03,13,10,15,1.60
2012,03,13,10,17,3.20
2012,03,13,10,18,3.20
2012,03,13,10,19,1.60
2012,03,13,10,20,9.60
2012,03,13,10,21,8.10
2012,03,13,10,22,9.60
2012,03,13,10,23,6.40
2012,03,13,10,24,8.10
2012,03,13,10,25,8.10
2012,03,13,10,26,4.80
2012,03,13,10,27,1.60
2012,03,13,10,28,3.20
2012,03,13,10,29,6.40
2012,03,13,10,30,8.10
2012,03,13,10,31,6.40
2012,03,13,10,32,8.10
2012,03,13,10,33,6.40
2012,03,13,10,34,8.10
2012,03,13,10,35,3.20
2012,03,13,10,36,4.80
2012,03,13,10,37,3.20
2012,03,13,10,38,1.60
2012,03,13,10,39,4.80
2012,03,13,10,40,1.60
2012,03,13,10,41,4.80
2012,03,13,10,42,8.10
2012,03,13,10,43,14.50
2012,03,13,10,44,9.60
2012,03,13,10,45,4.80
2012,03,13,10,46,1.60
2012,03,13,10,47,4.80
2012,03,13,10,48,1.60
2012,03,13,10,49,4.80
2012,03,13,10,50,3.20
2012,03,13,10,51,8.10
2012,03,13,10,52,4.80
2012,03,13,10,53,6.40
2012,03,13,10,54,4.80
2012,03,13,10,55,6.40
2012,03,13,10,56,8.10
2012,03,13,10,57,6.40
2012,03,13,10,58,4.80
2012,03,13,10,59,3.20
2012,03,13,11,00,9.60
2012,03,13,11,01,6.40
2012,03,13,11,02,4.80
2012,03,13,11,03,6.40
2012,03,13,11,04,8.10
2012,03,13,11,05,1.60
2012,03,13,11,06,4.80
2012,03,13,11,07,6.40
2012,03,13,11,08,9.60
2012,03,13,11,09,6.40
2012,03,13,11,10,3.20
2012,03,13,11,11,4.80
2012,03,13,11,12,6.40
2012,03,13,11,13,8.10
2012,03,13,11,14,6.40
2012,03,13,11,15,4.80
2012,03,13,11,16,3.20
2012,03,13,11,17,6.40
2012,03,13,11,18,3.20
2012,03,13,11,19,6.40
2012,03,13,11,20,4.80
2012,03,13,11,21,6.40
2012,03,13,11,22,6.40
2012,03,13,11,23,4.80
2012,03,13,11,24,6.40
2012,03,13,11,25,1.60
2012,03,13,11,26,3.20
2012,03,13,11,27,4.80
2012,03,13,11,28,6.40
2012,03,13,11,29,4.80
2012,03,13,11,30,1.60
2012,03,13,11,31,1.60
2012,03,13,11,32,4.80
2012,03,13,11,33,4.80
2012,03,13,11,34,6.40
2012,03,13,11,35,6.40
2012,03,13,11,36,8.10
2012,03,13,11,37,4.80
2012,03,13,11,38,4.80
2012,03,13,11,39,4.80
2012,03,13,11,40,3.20
2012,03,13,11,41,6.40
2012,03,13,11,42,8.10
2012,03,13,11,43,11.30
2012,03,13,11,44,3.20
2012,03,13,11,45,4.80
2012,03,13,11,46,8.10
2012,03,13,11,47,4.80
2012,03,13,11,48,1.60
2012,03,13,11,49,3.20
2012,03,13,11,50,6.40
2012,03,13,11,51,4.80
2012,03,13,11,52,9.60
2012,03,13,11,53,4.80
2012,03,13,11,54,8.10
2012,03,13,11,55,6.40
2012,03,13,11,56,6.40
2012,03,13,11,57,8.10
2012,03,13,11,58,4.80
2012,03,13,11,59,11.30
2012,03,13,12,00,6.40
2012,03,13,12,01,4.80
2012,03,13,12,02,4.80
2012,03,13,12,03,6.40
2012,03,13,12,04,4.80
2012,03,13,12,06,3.20
2012,03,13,12,07,8.10
2012,03,13,12,08,6.40
2012,03,13,12,09,11.30
2012,03,13,12,10,11.30
2012,03,13,12,11,8.10
2012,03,13,12,12,6.40
2012,03,13,12,13,4.80
2012,03,13,12,14,1.60
2012,03,13,12,15,6.40
2012,03,13,12,16,9.60
2012,03,13,12,17,8.10
2012,03,13,12,18,11.30
2012,03,13,12,19,9.60
2012,03,13,12,20,9.60
2012,03,13,12,21,6.40
2012,03,13,12,22,9.60
2012,03,13,12,23,9.60
2012,03,13,12,24,6.40
2012,03,13,12,25,11.30
2012,03,13,12,26,14.50
2012,03,13,12,27,9.60
2012,03,13,12,28,9.60
2012,03,13,12,29,4.80
2012,03,13,12,30,9.60
2012,03,13,12,31,9.60
2012,03,13,12,32,11.30
2012,03,13,12,33,8.10
2012,03,13,12,34,8.10
2012,03,13,12,35,11.30
2012,03,13,12,36,9.60
2012,03,13,12,37,8.10
2012,03,13,12,38,9.60
2012,03,13,12,39,8.10
2012,03,13,12,40,8.10
2012,03,13,12,41,11.30
2012,03,13,12,42,14.50
2012,03,13,12,43,14.50
2012,03,13,12,44,9.60
2012,03,13,12,45,9.60
2012,03,13,12,46,9.60
2012,03,13,12,47,14.50
2012,03,13,12,48,14.50
2012,03,13,12,49,16.10
2012,03,13,12,50,16.10
2012,03,13,12,51,8.10
2012,03,13,12,52,6.40
2012,03,13,12,53,4.80
2012,03,13,12,54,6.40
2012,03,13,12,55,6.40
2012,03,13,12,56,14.50
2012,03,13,12,57,11.30
2012,03,13,12,58,9.60
2012,03,13,12,59,8.10
2012,03,13,13,00,6.40
2012,03,13,13,01,8.10
2012,03,13,13,02,6.40
2012,03,13,13,03,14.50
2012,03,13,13,04,9.60
2012,03,13,13,05,6.40
2012,03,13,13,06,4.80
2012,03,13,13,07,8.10
2012,03,13,13,08,8.10
2012,03,13,13,09,9.60
2012,03,13,13,10,8.10
2012,03,13,13,11,6.40
2012,03,13,13,12,9.60
2012,03,13,13,13,9.60
2012,03,13,13,14,9.60
2012,03,13,13,15,11.30
2012,03,13,13,16,9.60
2012,03,13,13,17,12.90
2012,03,13,13,18,6.40
2012,03,13,13,19,9.60
2012,03,13,13,20,14.50
2012,03,13,13,21,14.50
2012,03,13,13,22,11.30
2012,03,13,13,23,9.60
2012,03,13,13,24,8.10
2012,03,13,13,25,9.60
2012,03,13,13,26,11.30
2012,03,13,13,27,9.60
2012,03,13,13,28,9.60
2012,03,13,13,29,17.70
2012,03,13,13,30,9.60
2012,03,13,13,31,8.10
2012,03,13,13,32,14.50
2012,03,13,13,33,9.60
2012,03,13,13,34,14.50
2012,03,13,13,35,17.70
2012,03,13,13,36,6.40
2012,03,13,13,37,11.30
2012,03,13,13,38,8.10
2012,03,13,13,39,11.30
2012,03,13,13,40,11.30
2012,03,13,13,41,11.30
2012,03,13,13,42,9.60
2012,03,13,13,43,14.50
2012,03,13,13,44,4.80
2012,03,13,13,45,4.80
2012,03,13,13,46,8.10
2012,03,13,13,47,4.80
2012,03,13,13,48,11.30
2012,03,13,13,49,16.10
2012,03,13,13,50,9.60
2012,03,13,13,51,4.80
2012,03,13,13,52,6.40
2012,03,13,13,53,4.80
2012,03,13,13,54,8.10
2012,03,13,13,55,14.50
2012,03,13,13,56,6.40
2012,03,13,13,57,6.40
2012,03,13,13,58,8.10
2012,03,13,13,59,9.60
2012,03,13,14,00,6.40
2012,03,13,14,01,8.10
2012,03,13,14,02,11.30
2012,03,13,14,03,17.70
2012,03,13,14,04,16.10
2012,03,13,14,05,11.30
2012,03,13,14,06,11.30
2012,03,13,14,07,14.50
2012,03,13,14,08,17.70
2012,03,13,14,09,17.70
2012,03,13,14,10,11.30
2012,03,13,14,11,11.30
2012,03,13,14,12,9.60
2012,03,13,14,13,20.90
2012,03,13,14,14,16.10
2012,03,13,14,15,9.60
2012,03,13,14,16,9.60
2012,03,13,14,17,12.90
2012,03,13,14,18,19.30
2012,03,13,14,19,17.70
2012,03,13,14,20,11.30
2012,03,13,14,21,17.70
2012,03,13,14,22,17.70
2012,03,13,14,23,19.30
2012,03,13,14,24,14.50
2012,03,13,14,25,11.30
2012,03,13,14,26,22.50
2012,03,13,14,27,16.10
2012,03,13,14,28,17.70
2012,03,13,14,29,22.50
2012,03,13,14,30,19.30
2012,03,13,14,31,11.30
2012,03,13,14,32,11.30
2012,03,13,14,33,12.90
2012,03,13,14,34,16.10
2012,03,13,14,35,16.10
2012,03,13,14,36,22.50
2012,03,13,14,37,14.50
2012,03,13,14,38,17.70
2012,03,13,14,39,9.60
2012,03,13,14,40,20.90
2012,03,13,14,41,17.70
2012,03,13,14,42,11.30
2012,03,13,14,43,20.90
2012,03,13,14,44,19.30
2012,03,13,14,45,20.90
2012,03,13,14,46,20.90
2012,03,13,14,47,19.30
2012,03,13,14,48,19.30
2012,03,13,14,49,16.10
2012,03,13,14,50,19.30
2012,03,13,14,51,22.50
2012,03,13,14,52,20.90
2012,03,13,14,53,16.10
2012,03,13,14,54,19.30
2012,03,13,14,55,6.40
2012,03,13,14,56,22.50
2012,03,13,14,57,24.20
2012,03,13,14,58,20.90
2012,03,13,14,59,22.50
2012,03,13,15,00,24.20
2012,03,13,15,01,22.50
2012,03,13,15,02,9.60
2012,03,13,15,03,19.30
2012,03,13,15,04,19.30
2012,03,13,15,05,22.50
2012,03,13,15,06,25.70
2012,03,13,15,07,33.80
2012,03,13,15,08,27.40
2012,03,13,15,09,40.20
2012,03,13,15,10,25.70
2012,03,13,15,11,32.20
2012,03,13,15,12,24.20
2012,03,13,15,13,27.40
2012,03,13,15,14,27.40
2012,03,13,15,15,24.20
2012,03,13,15,16,29.00
2012,03,13,15,17,27.40
2012,03,13,15,18,20.90
2012,03,13,15,19,14.50
2012,03,13,15,20,9.60
2012,03,13,15,21,22.50
2012,03,13,15,22,19.30
2012,03,13,15,23,25.70
2012,03,13,15,24,25.70
2012,03,13,15,25,17.70
2012,03,13,15,26,20.90
2012,03,13,15,27,19.30
2012,03,13,15,28,16.10
2012,03,13,15,29,19.30
2012,03,13,15,30,20.90
2012,03,13,15,31,19.30
2012,03,13,15,32,22.50
2012,03,13,15,33,20.90
2012,03,13,15,34,16.10
2012,03,13,15,35,19.30
2012,03,13,15,36,9.60
2012,03,13,15,37,9.60
2012,03,13,15,38,11.30
2012,03,13,15,39,19.30
2012,03,13,15,40,25.70
2012,03,13,15,41,20.90
2012,03,13,15,42,17.70
2012,03,13,15,43,16.10
2012,03,13,15,44,24.20
2012,03,13,15,45,22.50
2012,03,13,15,46,16.10
2012,03,13,15,47,16.10
2012,03,13,15,48,11.30
2012,03,13,15,49,20.90
2012,03,13,15,50,27.40
2012,03,13,15,51,17.70
2012,03,13,15,52,20.90
2012,03,13,15,53,17.70
2012,03,13,15,54,9.60
2012,03,13,15,55,17.70
2012,03,13,15,56,11.30
2012,03,13,15,57,22.50
2012,03,13,15,58,25.70
2012,03,13,15,59,30.60
2012,03,13,16,00,12.90
2012,03,13,16,01,16.10
2012,03,13,16,02,27.40
2012,03,13,16,03,20.90
2012,03,13,16,04,19.30
2012,03,13,16,05,14.50
2012,03,13,16,06,9.60
2012,03,13,16,07,20.90
2012,03,13,16,08,9.60
2012,03,13,16,09,19.30
2012,03,13,16,10,12.90
2012,03,13,16,11,19.30
2012,03,13,16,12,16.10
2012,03,13,16,13,19.30
2012,03,13,16,14,12.90
2012,03,13,16,15,9.60
2012,03,13,16,16,9.60
2012,03,13,16,17,16.10
2012,03,13,16,18,17.70
2012,03,13,16,19,17.70
2012,03,13,16,20,29.00
2012,03,13,16,21,22.50
2012,03,13,16,22,24.20
2012,03,13,16,23,20.90
2012,03,13,16,24,22.50
2012,03,13,16,25,22.50
2012,03,13,16,26,30.60
2012,03,13,16,27,29.00
2012,03,13,16,28,29.00
2012,03,13,16,29,25.70
2012,03,13,16,30,20.90
2012,03,13,16,31,32.20
2012,03,13,16,32,24.20
2012,03,13,16,33,22.50
2012,03,13,16,34,29.00
2012,03,13,16,35,32.20
2012,03,13,16,36,40.20
2012,03,13,16,37,32.20
2012,03,13,16,38,32.20
2012,03,13,16,39,25.70
2012,03,13,16,40,25.70
2012,03,13,16,41,25.70
2012,03,13,16,42,32.20
2012,03,13,16,43,24.20
2012,03,13,16,44,29.00
2012,03,13,16,45,24.20
2012,03,13,16,46,24.20
2012,03,13,16,47,25.70
2012,03,13,16,48,20.90
2012,03,13,16,49,22.50
2012,03,13,16,50,27.40
2012,03,13,16,51,20.90
2012,03,13,16,52,25.70
2012,03,13,16,53,22.50
2012,03,13,16,54,29.00
2012,03,13,16,55,17.70
2012,03,13,16,56,25.70
2012,03,13,16,57,22.50
2012,03,13,16,58,16.10
2012,03,13,16,59,22.50
2012,03,13,17,00,20.90
2012,03,13,17,01,24.20
2012,03,13,17,02,22.50
2012,03,13,17,03,17.70
2012,03,13,17,04,20.90
2012,03,13,17,05,20.90
2012,03,13,17,06,22.50
2012,03,13,17,07,16.10
2012,03,13,17,08,11.30
2012,03,13,17,09,19.30
2012,03,13,17,10,24.20
2012,03,13,17,11,22.50
2012,03,13,17,12,19.30
2012,03,13,17,13,22.50
2012,03,13,17,14,14.50
2012,03,13,17,15,17.70
2012,03,13,17,16,22.50
2012,03,13,17,17,16.10
2012,03,13,17,18,14.50
2012,03,13,17,19,17.70
2012,03,13,17,20,17.70
2012,03,13,17,21,20.90
2012,03,13,17,22,14.50
2012,03,13,17,23,17.70
2012,03,13,17,24,19.30
2012,03,13,17,25,24.20
2012,03,13,17,26,19.30
2012,03,13,17,27,30.60
2012,03,13,17,28,22.50
2012,03,13,17,29,14.50
2012,03,13,17,30,16.10
2012,03,13,17,31,17.70
2012,03,13,17,32,16.10
2012,03,13,17,33,8.10
2012,03,13,17,34,25.70
2012,03,13,17,35,14.50
2012,03,13,17,36,19.30
2012,03,13,17,37,24.20
2012,03,13,17,38,14.50
2012,03,13,17,39,19.30
2012,03,13,17,40,22.50
2012,03,13,17,41,20.90
2012,03,13,17,42,22.50
2012,03,13,17,43,22.50
2012,03,13,17,44,19.30
2012,03,13,17,45,22.50
2012,03,13,17,46,9.60
2012,03,13,17,47,19.30
2012,03,13,17,48,17.70
2012,03,13,17,49,20.90
2012,03,13,17,50,17.70
2012,03,13,17,51,9.60
2012,03,13,17,52,9.60
2012,03,13,17,53,20.90
2012,03,13,17,54,14.50
2012,03,13,17,55,17.70
2012,03,13,17,56,19.30
2012,03,13,17,57,8.10
2012,03,13,17,58,20.90
2012,03,13,17,59,11.30
2012,03,13,18,00,8.10
2012,03,13,18,01,16.10
2012,03,13,18,02,8.10
2012,03,13,18,03,8.10
2012,03,13,18,04,14.50
2012,03,13,18,05,20.90
2012,03,13,18,06,17.70
2012,03,13,18,07,8.10
2012,03,13,18,08,19.30
2012,03,13,18,09,17.70
2012,03,13,18,10,9.60
2012,03,13,18,11,9.60
2012,03,13,18,12,8.10
2012,03,13,18,13,12.90
2012,03,13,18,14,14.50
2012,03,13,18,15,9.60
2012,03,13,18,16,8.10
2012,03,13,18,17,14.50
2012,03,13,18,18,11.30
2012,03,13,18,19,9.60
2012,03,13,18,20,11.30
2012,03,13,18,21,11.30
2012,03,13,18,22,9.60
2012,03,13,18,23,3.20
2012,03,13,18,24,14.50
2012,03,13,18,25,8.10
2012,03,13,18,26,6.40
2012,03,13,18,27,8.10
2012,03,13,18,28,6.40
2012,03,13,18,29,8.10
2012,03,13,18,30,8.10
2012,03,13,18,31,11.30
2012,03,13,18,32,17.70
2012,03,13,18,33,16.10
2012,03,13,18,34,9.60
2012,03,13,18,35,6.40
2012,03,13,18,36,8.10
2012,03,13,18,37,17.70
2012,03,13,18,38,16.10
2012,03,13,18,39,17.70
2012,03,13,18,40,14.50
2012,03,13,18,41,17.70
2012,03,13,18,42,17.70
2012,03,13,18,43,19.30
2012,03,13,18,44,17.70
2012,03,13,18,45,16.10
2012,03,13,18,46,16.10
2012,03,13,18,47,9.60
2012,03,13,18,48,9.60
2012,03,13,18,49,11.30
2012,03,13,18,50,4.80
2012,03,13,18,51,12.90
2012,03,13,18,52,9.60
2012,03,13,18,53,16.10
2012,03,13,18,54,9.60
2012,03,13,18,55,14.50
2012,03,13,18,56,11.30
2012,03,13,18,57,22.50
2012,03,13,18,58,20.90
2012,03,13,18,59,19.30
2012,03,13,19,00,16.10
2012,03,13,19,01,17.70
2012,03,13,19,02,20.90
2012,03,13,19,03,24.20
2012,03,13,19,04,19.30
2012,03,13,19,05,16.10
2012,03,13,19,06,17.70
2012,03,13,19,07,16.10
2012,03,13,19,08,16.10